sat.trackr.live / text

‹ back to catalog

STARLINK-35964

NORAD 66796 · 2025-278F

PAYLOAD ACTIVE UNKNOWN

§ Identity

Operator
Country
US
Launch date
2025-12-01
Launch site
AFETR
Launch vehicle
Mass (kg)
RCS (m²)

Purposes: comms

External: N2YO · Heavens-Above · Gunter

§ Orbital elements

Epoch: 2026-05-25T00:52:25.262400Z

Period
94.27 min
Inclination
43.0007°
Eccentricity
0.0001086
Mean motion
15.27569189 rev/d
Perigee alt
482.3 km
Apogee alt
483.8 km
Semi-major
6,861.2 km
B*
5.3896e-4
RAAN
28.3062°
Arg perigee
266.7092°
Mean anomaly
93.3636°
Rev number
2,705

§ Raw data

STARLINK-359641 66796U 25278F   26145.03640350  .00014593  00000+0  53896-3 0  99922 66796  43.0007  28.3062 0001086 266.7092  93.3636 15.27569189 27055

JSON: /api/v1/satellites/66796 · /tle

For live sub-satellite position, see the globe view (requires WebGL).

§ Visibility from observer

Set your observer location to see the next 7 days of passes ≥ 10°. The values pass through the URL so the page stays shareable.

No JS? Fill the form by hand. The geolocation button needs JavaScript.